Time,TemperatureF,DewpointF,PressureIn,WindDirection,WindDirectionDegrees,WindSpeedMPH,WindSpeedGustMPH,Humidity,HourlyPrecipIn,Conditions,Clouds,dailyrainin,SoftwareType,DateUTC
2013-06-10 00:02:00,90.7,26.8,29.91,WNW,293,6.9,12.5,8,0.00,,,0.00,WUHU216HW,2013-06-10 07:02:00,
2013-06-10 00:07:00,90.5,26.6,29.91,North,0,6.0,12.5,8,0.00,,,0.00,WUHU216HW,2013-06-10 07:07:00,
2013-06-10 00:12:00,90.5,26.6,29.91,NNW,338,7.4,9.8,8,0.00,,,0.00,WUHU216HW,2013-06-10 07:12:00,
2013-06-10 00:17:00,90.7,26.8,29.91,North,0,6.5,12.1,8,0.00,,,0.00,WUHU216HW,2013-06-10 07:17:00,
2013-06-10 00:22:00,90.7,26.8,29.91,NW,315,6.3,12.1,8,0.00,,,0.00,WUHU216HW,2013-06-10 07:22:00,
2013-06-10 00:27:00,90.7,26.8,29.92,North,0,4.3,8.9,8,0.00,,,0.00,WUHU216HW,2013-06-10 07:27:00,
2013-06-10 00:32:00,90.4,26.5,29.91,NNW,338,5.6,8.9,8,0.00,,,0.00,WUHU216HW,2013-06-10 07:32:00,
2013-06-10 00:37:00,90.4,26.5,29.91,WNW,293,5.4,8.5,8,0.00,,,0.00,WUHU216HW,2013-06-10 07:37:00,
2013-06-10 00:42:00,90.0,26.2,29.90,NNW,338,6.9,6.9,8,0.00,,,0.00,WUHU216HW,2013-06-10 07:42:00,
2013-06-10 00:47:00,89.6,25.9,29.90,West,270,4.7,6.9,8,0.00,,,0.00,WUHU216HW,2013-06-10 07:47:00,
2013-06-10 00:52:00,89.5,25.8,29.90,NW,315,4.7,7.4,8,0.00,,,0.00,WUHU216HW,2013-06-10 07:52:00,
2013-06-10 00:57:00,89.6,25.9,29.90,NNW,338,2.5,7.4,7,0.00,,,0.00,WUHU216HW,2013-06-10 07:57:00,
2013-06-10 01:02:00,89.6,25.9,29.90,NNW,338,4.5,7.8,7,0.00,,,0.00,WUHU216HW,2013-06-10 08:02:00,
2013-06-10 01:07:00,89.6,25.9,29.90,ESE,113,1.3,7.8,8,0.00,,,0.00,WUHU216HW,2013-06-10 08:07:00,
2013-06-10 01:12:00,88.9,25.4,29.91,SE,135,0.0,5.6,8,0.00,,,0.00,WUHU216HW,2013-06-10 08:12:00,
2013-06-10 01:17:00,87.7,24.5,29.91,SE,135,2.2,3.1,8,0.00,,,0.00,WUHU216HW,2013-06-10 08:17:00,
2013-06-10 01:22:00,86.4,23.5,29.91,ESE,113,1.6,2.9,10,0.00,,,0.00,WUHU216HW,2013-06-10 08:22:00,
2013-06-10 01:27:00,85.5,22.8,29.91,SE,135,1.8,2.9,10,0.00,,,0.00,WUHU216HW,2013-06-10 08:27:00,
2013-06-10 01:32:00,84.6,22.1,29.91,SSW,203,2.5,2.9,10,0.00,,,0.00,WUHU216HW,2013-06-10 08:32:00,
2013-06-10 01:37:00,83.9,23.2,29.91,SE,135,2.7,3.4,11,0.00,,,0.00,WUHU216HW,2013-06-10 08:37:00,
2013-06-10 01:42:00,83.2,22.7,29.91,ESE,113,1.8,3.6,11,0.00,,,0.00,WUHU216HW,2013-06-10 08:42:00,
2013-06-10 01:47:00,82.4,22.2,29.91,ESE,113,0.7,3.6,11,0.00,,,0.00,WUHU216HW,2013-06-10 08:47:00,
2013-06-10 01:52:00,82.3,23.8,29.91,SE,135,2.2,3.4,12,0.00,,,0.00,WUHU216HW,2013-06-10 08:52:00,
2013-06-10 01:57:00,81.7,23.3,29.91,East,90,4.9,4.9,12,0.00,,,0.00,WUHU216HW,2013-06-10 08:57:00,
2013-06-10 02:02:00,81.5,23.2,29.91,East,90,3.1,8.1,12,0.00,,,0.00,WUHU216HW,2013-06-10 09:02:00,
2013-06-10 02:07:00,81.4,23.0,29.92,SE,135,4.0,8.1,12,0.00,,,0.00,WUHU216HW,2013-06-10 09:07:00,
2013-06-10 02:12:00,81.2,22.9,29.92,ENE,68,2.5,6.0,12,0.00,,,0.00,WUHU216HW,2013-06-10 09:12:00,
2013-06-10 02:17:00,81.0,22.8,29.92,East,90,4.3,4.3,12,0.00,,,0.00,WUHU216HW,2013-06-10 09:17:00,
2013-06-10 02:22:00,80.6,22.5,29.92,East,90,4.3,5.4,12,0.00,,,0.00,WUHU216HW,2013-06-10 09:22:00,
2013-06-10 02:27:00,80.5,24.0,29.91,East,90,4.0,5.4,13,0.00,,,0.00,WUHU216HW,2013-06-10 09:27:00,
2013-06-10 02:32:00,80.3,23.9,29.90,ENE,68,5.4,5.4,13,0.00,,,0.00,WUHU216HW,2013-06-10 09:32:00,
2013-06-10 02:37:00,79.9,23.6,29.90,East,90,3.8,5.4,13,0.00,,,0.00,WUHU216HW,2013-06-10 09:37:00,
2013-06-10 02:42:00,79.7,23.4,29.90,ESE,113,1.8,5.4,13,0.00,,,0.00,WUHU216HW,2013-06-10 09:42:00,
2013-06-10 02:47:00,79.4,23.1,29.90,ESE,113,3.4,4.7,13,0.00,,,0.00,WUHU216HW,2013-06-10 09:47:00,
2013-06-10 02:52:00,79.0,22.8,29.90,East,90,2.7,4.3,13,0.00,,,0.00,WUHU216HW,2013-06-10 09:52:00,
2013-06-10 02:57:00,78.8,26.0,29.90,East,90,2.7,5.4,15,0.00,,,0.00,WUHU216HW,2013-06-10 09:57:00,
2013-06-10 03:02:00,78.7,25.9,29.91,ENE,68,3.4,5.4,15,0.00,,,0.00,WUHU216HW,2013-06-10 10:02:00,
2013-06-10 03:07:00,78.3,25.6,29.91,East,90,4.7,5.4,15,0.00,,,0.00,WUHU216HW,2013-06-10 10:07:00,
2013-06-10 03:12:00,78.1,25.5,29.91,ESE,113,4.7,5.8,15,0.00,,,0.00,WUHU216HW,2013-06-10 10:12:00,
2013-06-10 03:17:00,78.1,25.5,29.91,ESE,113,6.3,6.3,15,0.00,,,0.00,WUHU216HW,2013-06-10 10:17:00,
2013-06-10 03:22:00,77.9,25.4,29.92,ESE,113,4.3,6.3,15,0.00,,,0.00,WUHU216HW,2013-06-10 10:22:00,
2013-06-10 03:27:00,77.8,26.8,29.92,ESE,113,4.7,6.3,16,0.00,,,0.00,WUHU216HW,2013-06-10 10:27:00,
2013-06-10 03:32:00,77.8,26.8,29.92,East,90,4.0,5.8,16,0.00,,,0.00,WUHU216HW,2013-06-10 10:32:00,
2013-06-10 03:37:00,77.8,26.8,29.92,ESE,113,3.4,5.4,16,0.00,,,0.00,WUHU216HW,2013-06-10 10:37:00,
2013-06-10 03:42:00,77.4,26.6,29.92,SE,135,3.4,4.9,16,0.00,,,0.00,WUHU216HW,2013-06-10 10:42:00,
2013-06-10 03:47:00,77.4,26.6,29.92,East,90,3.1,4.7,16,0.00,,,0.00,WUHU216HW,2013-06-10 10:47:00,
2013-06-10 03:52:00,77.0,26.3,29.92,East,90,3.4,4.3,16,0.00,,,0.00,WUHU216HW,2013-06-10 10:52:00,
2013-06-10 03:57:00,76.9,26.2,29.92,ENE,68,4.0,4.3,16,0.00,,,0.00,WUHU216HW,2013-06-10 10:57:00,
2013-06-10 04:02:00,76.7,26.0,29.92,ENE,68,4.0,4.7,16,0.00,,,0.00,WUHU216HW,2013-06-10 11:02:00,
2013-06-10 04:07:00,76.7,26.0,29.92,ENE,68,2.5,4.7,16,0.00,,,0.00,WUHU216HW,2013-06-10 11:07:00,
2013-06-10 04:12:00,76.5,25.9,29.92,NE,45,1.6,3.8,16,0.00,,,0.00,WUHU216HW,2013-06-10 11:12:00,
2013-06-10 04:17:00,76.7,26.0,29.92,East,90,1.6,3.8,16,0.00,,,0.00,WUHU216HW,2013-06-10 11:17:00,
2013-06-10 04:22:00,76.5,25.9,29.92,East,90,1.1,2.5,16,0.00,,,0.00,WUHU216HW,2013-06-10 11:22:00,
2013-06-10 04:27:00,76.5,25.9,29.92,North,0,0.0,2.5,16,0.00,,,0.00,WUHU216HW,2013-06-10 11:27:00,
2013-06-10 04:32:00,76.7,26.0,29.92,East,90,0.7,1.1,16,0.00,,,0.00,WUHU216HW,2013-06-10 11:32:00,
2013-06-10 04:37:00,76.5,25.9,29.92,ESE,113,1.6,1.8,16,0.00,,,0.00,WUHU216HW,2013-06-10 11:37:00,
2013-06-10 04:42:00,76.3,25.7,29.91,ESE,113,3.8,3.8,16,0.00,,,0.00,WUHU216HW,2013-06-10 11:42:00,
2013-06-10 04:47:00,76.1,25.6,29.91,ESE,113,4.5,4.7,16,0.00,,,0.00,WUHU216HW,2013-06-10 11:47:00,
2013-06-10 04:52:00,76.0,25.5,29.92,East,90,4.3,5.6,16,0.00,,,0.00,WUHU216HW,2013-06-10 11:52:00,
2013-06-10 04:57:00,76.0,27.1,29.92,East,90,4.0,6.9,17,0.00,,,0.00,WUHU216HW,2013-06-10 11:57:00,
2013-06-10 05:02:00,76.0,27.1,29.93,East,90,3.8,6.9,17,0.00,,,0.00,WUHU216HW,2013-06-10 12:02:00,
2013-06-10 05:07:00,76.0,27.1,29.93,ESE,113,2.9,5.1,17,0.00,,,0.00,WUHU216HW,2013-06-10 12:07:00,
2013-06-10 05:12:00,75.6,26.8,29.93,ESE,113,3.6,4.7,17,0.00,,,0.00,WUHU216HW,2013-06-10 12:12:00,
2013-06-10 05:17:00,75.4,26.6,29.93,East,90,2.5,4.9,17,0.00,,,0.00,WUHU216HW,2013-06-10 12:17:00,
2013-06-10 05:22:00,75.2,28.2,29.94,ESE,113,4.9,4.9,18,0.00,,,0.00,WUHU216HW,2013-06-10 12:22:00,
2013-06-10 05:27:00,75.2,28.2,29.94,ENE,68,2.0,4.9,18,0.00,,,0.00,WUHU216HW,2013-06-10 12:27:00,
2013-06-10 05:33:00,74.9,27.9,29.94,ESE,113,1.8,4.9,18,0.00,,,0.00,WUHU216HW,2013-06-10 12:33:00,
2013-06-10 05:38:00,74.7,27.8,29.94,East,90,3.4,3.4,18,0.00,,,0.00,WUHU216HW,2013-06-10 12:38:00,
2013-06-10 05:43:00,74.7,29.4,29.94,East,90,2.9,3.4,19,0.00,,,0.00,WUHU216HW,2013-06-10 12:43:00,
2013-06-10 05:48:00,74.7,29.4,29.95,ESE,113,4.0,4.0,19,0.00,,,0.00,WUHU216HW,2013-06-10 12:48:00,
2013-06-10 05:53:00,74.5,29.3,29.95,ENE,68,4.0,4.0,19,0.00,,,0.00,WUHU216HW,2013-06-10 12:53:00,
2013-06-10 05:58:00,74.5,29.3,29.95,East,90,5.4,5.4,19,0.00,,,0.00,WUHU216HW,2013-06-10 12:58:00,
2013-06-10 06:03:00,74.7,29.4,29.95,ESE,113,5.1,5.8,19,0.00,,,0.00,WUHU216HW,2013-06-10 13:03:00,
2013-06-10 06:08:00,74.9,29.5,29.95,East,90,4.7,5.8,19,0.00,,,0.00,WUHU216HW,2013-06-10 13:08:00,
2013-06-10 06:13:00,75.2,29.9,29.95,East,90,4.3,5.8,19,0.00,,,0.00,WUHU216HW,2013-06-10 13:13:00,
2013-06-10 06:18:00,75.4,30.0,29.96,East,90,5.4,6.3,19,0.00,,,0.00,WUHU216HW,2013-06-10 13:18:00,
2013-06-10 06:23:00,75.6,30.2,29.96,East,90,4.0,6.3,19,0.00,,,0.00,WUHU216HW,2013-06-10 13:23:00,
2013-06-10 06:28:00,76.0,30.4,29.96,ESE,113,4.5,5.6,19,0.00,,,0.00,WUHU216HW,2013-06-10 13:28:00,
2013-06-10 06:33:00,76.1,30.6,29.96,ESE,113,3.4,6.3,19,0.00,,,0.00,WUHU216HW,2013-06-10 13:33:00,
2013-06-10 06:38:00,76.3,32.4,29.96,SE,135,5.6,6.3,20,0.00,,,0.00,WUHU216HW,2013-06-10 13:38:00,
2013-06-10 06:43:00,76.5,32.5,29.96,SE,135,5.4,6.0,20,0.00,,,0.00,WUHU216HW,2013-06-10 13:43:00,
2013-06-10 06:48:00,76.7,33.7,29.96,SSE,158,5.6,6.9,21,0.00,,,0.00,WUHU216HW,2013-06-10 13:48:00,
2013-06-10 06:53:00,76.7,33.7,29.96,SE,135,3.6,7.4,21,0.00,,,0.00,WUHU216HW,2013-06-10 13:53:00,
2013-06-10 06:58:00,76.7,33.7,29.97,East,90,6.9,7.4,21,0.00,,,0.00,WUHU216HW,2013-06-10 13:58:00,
2013-06-10 07:03:00,76.9,34.9,29.97,SE,135,6.0,7.6,22,0.00,,,0.00,WUHU216HW,2013-06-10 14:03:00,
2013-06-10 07:08:00,77.0,35.0,29.97,SE,135,7.2,8.1,22,0.00,,,0.00,WUHU216HW,2013-06-10 14:08:00,
2013-06-10 07:13:00,77.4,35.3,29.97,East,90,4.7,8.5,22,0.00,,,0.00,WUHU216HW,2013-06-10 14:13:00,
2013-06-10 07:18:00,77.8,35.7,29.97,East,90,6.3,8.5,22,0.00,,,0.00,WUHU216HW,2013-06-10 14:18:00,
2013-06-10 07:23:00,78.1,35.9,29.97,ESE,113,8.1,8.5,22,0.00,,,0.00,WUHU216HW,2013-06-10 14:23:00,
2013-06-10 07:28:00,78.5,35.1,29.97,ESE,113,6.9,9.8,21,0.00,,,0.00,WUHU216HW,2013-06-10 14:28:00,
2013-06-10 07:33:00,78.8,35.5,29.97,East,90,5.1,9.8,21,0.00,,,0.00,WUHU216HW,2013-06-10 14:33:00,
2013-06-10 07:38:00,79.0,35.6,29.97,ESE,113,5.8,7.8,21,0.00,,,0.00,WUHU216HW,2013-06-10 14:38:00,
2013-06-10 07:43:00,79.4,35.9,29.97,ESE,113,4.9,7.6,21,0.00,,,0.00,WUHU216HW,2013-06-10 14:43:00,
2013-06-10 07:48:00,79.7,36.3,29.97,NE,45,5.4,7.6,21,0.00,,,0.00,WUHU216HW,2013-06-10 14:48:00,
2013-06-10 07:53:00,80.3,36.7,29.96,SE,135,3.6,7.4,21,0.00,,,0.00,WUHU216HW,2013-06-10 14:53:00,
2013-06-10 07:58:00,80.6,37.1,29.97,SE,135,5.8,6.7,21,0.00,,,0.00,WUHU216HW,2013-06-10 14:58:00,
2013-06-10 08:03:00,81.0,37.4,29.97,SSE,158,4.5,6.0,21,0.00,,,0.00,WUHU216HW,2013-06-10 15:03:00,
2013-06-10 08:08:00,81.4,36.5,29.97,ESE,113,3.8,6.9,20,0.00,,,0.00,WUHU216HW,2013-06-10 15:08:00,
2013-06-10 08:13:00,82.1,35.5,29.97,SE,135,5.8,6.9,19,0.00,,,0.00,WUHU216HW,2013-06-10 15:13:00,
2013-06-10 08:18:00,82.3,35.7,29.98,ESE,113,5.1,8.1,19,0.00,,,0.00,WUHU216HW,2013-06-10 15:18:00,
2013-06-10 08:23:00,82.8,36.0,29.98,ESE,113,6.3,8.1,19,0.00,,,0.00,WUHU216HW,2013-06-10 15:23:00,
2013-06-10 08:28:00,83.3,36.5,29.98,East,90,6.0,8.1,19,0.00,,,0.00,WUHU216HW,2013-06-10 15:28:00,
2013-06-10 08:33:00,83.9,36.9,29.98,East,90,4.0,8.1,19,0.00,,,0.00,WUHU216HW,2013-06-10 15:33:00,
2013-06-10 08:38:00,84.2,35.5,29.98,ESE,113,1.8,7.6,18,0.00,,,0.00,WUHU216HW,2013-06-10 15:38:00,
2013-06-10 08:43:00,84.6,35.7,29.98,SE,135,4.3,6.3,18,0.00,,,0.00,WUHU216HW,2013-06-10 15:43:00,
2013-06-10 08:48:00,85.0,36.0,29.98,East,90,2.5,6.3,18,0.00,,,0.00,WUHU216HW,2013-06-10 15:48:00,
2013-06-10 08:53:00,85.3,36.4,29.98,East,90,1.8,5.1,18,0.00,,,0.00,WUHU216HW,2013-06-10 15:53:00,
2013-06-10 08:58:00,85.9,35.0,29.98,SSE,158,3.1,5.1,17,0.00,,,0.00,WUHU216HW,2013-06-10 15:58:00,
2013-06-10 09:03:00,86.4,35.5,29.98,NNE,23,0.4,5.1,17,0.00,,,0.00,WUHU216HW,2013-06-10 16:03:00,
2013-06-10 09:08:00,86.6,35.6,29.98,SE,135,2.5,5.1,17,0.00,,,0.00,WUHU216HW,2013-06-10 16:08:00,
2013-06-10 09:13:00,87.1,34.4,29.98,NNW,338,0.9,3.6,16,0.00,,,0.00,WUHU216HW,2013-06-10 16:13:00,
2013-06-10 09:18:00,87.5,34.8,29.98,WSW,248,0.7,4.0,16,0.00,,,0.00,WUHU216HW,2013-06-10 16:18:00,
2013-06-10 09:23:00,87.8,35.0,29.97,SW,225,4.0,4.5,16,0.00,,,0.00,WUHU216HW,2013-06-10 16:23:00,
2013-06-10 09:28:00,88.2,35.3,29.97,SE,135,4.0,4.7,16,0.00,,,0.00,WUHU216HW,2013-06-10 16:28:00,
2013-06-10 09:33:00,88.6,33.8,29.96,SSE,158,2.2,5.8,15,0.00,,,0.00,WUHU216HW,2013-06-10 16:33:00,
2013-06-10 09:38:00,88.7,34.0,29.96,SSW,203,3.4,6.3,15,0.00,,,0.00,WUHU216HW,2013-06-10 16:38:00,
2013-06-10 09:43:00,88.9,34.1,29.96,SE,135,2.2,6.3,15,0.00,,,0.00,WUHU216HW,2013-06-10 16:43:00,
2013-06-10 09:48:00,89.1,34.2,29.96,South,180,2.0,3.6,15,0.00,,,0.00,WUHU216HW,2013-06-10 16:48:00,
2013-06-10 09:53:00,89.5,34.5,29.97,NNW,338,0.9,3.6,15,0.00,,,0.00,WUHU216HW,2013-06-10 16:53:00,
2013-06-10 09:58:00,90.0,33.2,29.97,WSW,248,2.5,3.1,14,0.00,,,0.00,WUHU216HW,2013-06-10 16:58:00,
2013-06-10 10:35:00,94.0,32.8,29.97,West,270,4.7,4.7,12,0.00,,,0.00,WUHU216HW,2013-06-10 17:35:00,
2013-06-10 10:40:00,95.2,33.8,29.96,NW,315,2.9,5.1,12,0.00,,,0.00,WUHU216HW,2013-06-10 17:40:00,
2013-06-10 10:45:00,96.8,33.1,29.96,WSW,248,5.4,7.2,11,0.00,,,0.00,WUHU216HW,2013-06-10 17:45:00,
2013-06-10 10:50:00,97.6,33.7,29.96,SSW,203,5.1,7.8,11,0.00,,,0.00,WUHU216HW,2013-06-10 17:50:00,
2013-06-10 10:55:00,98.3,34.3,29.95,WSW,248,2.9,7.8,11,0.00,,,0.00,WUHU216HW,2013-06-10 17:55:00,
2013-06-10 11:00:00,99.0,33.0,29.96,WSW,248,2.7,6.5,10,0.00,,,0.00,WUHU216HW,2013-06-10 18:00:00,
2013-06-10 11:05:00,99.7,33.7,29.96,WNW,293,3.6,6.7,10,0.00,,,0.00,WUHU216HW,2013-06-10 18:05:00,
2013-06-10 11:10:00,100.3,34.0,29.96,SW,225,4.5,6.9,10,0.00,,,0.00,WUHU216HW,2013-06-10 18:10:00,
2013-06-10 11:15:00,100.4,34.2,29.96,West,270,8.5,8.5,8,0.00,,,0.00,WUHU216HW,2013-06-10 18:15:00,
2013-06-10 11:20:00,99.9,33.8,29.97,SW,225,4.5,8.5,10,0.00,,,0.00,WUHU216HW,2013-06-10 18:20:00,
2013-06-10 11:25:00,100.6,34.3,29.97,SE,135,0.9,8.5,10,0.00,,,0.00,WUHU216HW,2013-06-10 18:25:00,
2013-06-10 11:30:00,101.0,34.6,29.97,WSW,248,4.0,8.9,8,0.00,,,0.00,WUHU216HW,2013-06-10 18:30:00,
2013-06-10 11:35:00,100.8,34.5,29.97,WNW,293,4.9,8.9,8,0.00,,,0.00,WUHU216HW,2013-06-10 18:35:00,
2013-06-10 11:40:00,100.6,34.3,29.96,SSW,203,5.1,5.4,8,0.00,,,0.00,WUHU216HW,2013-06-10 18:40:00,
2013-06-10 11:45:00,100.3,34.0,29.95,SW,225,7.8,10.1,8,0.00,,,0.00,WUHU216HW,2013-06-10 18:45:00,
2013-06-10 11:50:00,100.3,34.0,29.95,West,270,6.5,10.1,8,0.00,,,0.00,WUHU216HW,2013-06-10 18:50:00,
2013-06-10 11:55:00,100.4,34.2,29.95,NW,315,4.7,7.8,8,0.00,,,0.00,WUHU216HW,2013-06-10 18:55:00,
2013-06-10 12:00:00,100.4,34.2,29.95,West,270,4.0,6.9,8,0.00,,,0.00,WUHU216HW,2013-06-10 19:00:00,
2013-06-10 12:05:00,100.6,34.3,29.95,WSW,248,9.2,9.2,7,0.00,,,0.00,WUHU216HW,2013-06-10 19:05:00,
2013-06-10 12:10:00,100.4,34.2,29.95,NW,315,2.5,11.6,7,0.00,,,0.00,WUHU216HW,2013-06-10 19:10:00,
2013-06-10 12:15:00,100.6,34.3,29.95,NW,315,6.5,11.6,7,0.00,,,0.00,WUHU216HW,2013-06-10 19:15:00,
2013-06-10 12:20:00,100.6,34.3,29.95,WNW,293,8.1,9.6,7,0.00,,,0.00,WUHU216HW,2013-06-10 19:20:00,
2013-06-10 12:25:00,100.4,34.2,29.95,West,270,5.8,9.4,7,0.00,,,0.00,WUHU216HW,2013-06-10 19:25:00,
2013-06-10 12:30:00,100.8,34.5,29.95,West,270,5.6,9.4,7,0.00,,,0.00,WUHU216HW,2013-06-10 19:30:00,
2013-06-10 12:35:00,101.0,34.6,29.95,West,270,8.3,10.5,7,0.00,,,0.00,WUHU216HW,2013-06-10 19:35:00,
2013-06-10 12:40:00,101.2,34.8,29.96,NNW,338,6.5,10.5,7,0.00,,,0.00,WUHU216HW,2013-06-10 19:40:00,
2013-06-10 12:45:00,101.2,34.8,29.95,West,270,3.4,10.5,7,0.00,,,0.00,WUHU216HW,2013-06-10 19:45:00,
2013-06-10 12:50:00,101.9,35.2,29.95,NW,315,9.2,9.2,7,0.00,,,0.00,WUHU216HW,2013-06-10 19:50:00,
2013-06-10 12:55:00,101.9,35.2,29.95,West,270,5.4,11.4,7,0.00,,,0.00,WUHU216HW,2013-06-10 19:55:00,
2013-06-10 13:00:00,102.4,35.7,29.94,West,270,8.3,11.4,6,0.00,,,0.00,WUHU216HW,2013-06-10 20:00:00,
2013-06-10 13:05:00,102.8,35.9,29.94,NW,315,8.5,12.1,6,0.00,,,0.00,WUHU216HW,2013-06-10 20:05:00,
2013-06-10 13:10:00,102.2,35.5,29.93,West,270,8.5,12.5,7,0.00,,,0.00,WUHU216HW,2013-06-10 20:10:00,
2013-06-10 13:15:00,102.4,35.7,29.93,WSW,248,6.3,12.5,7,0.00,,,0.00,WUHU216HW,2013-06-10 20:15:00,
2013-06-10 13:20:00,103.1,36.2,29.93,NNW,338,4.7,8.5,7,0.00,,,0.00,WUHU216HW,2013-06-10 20:20:00,
2013-06-10 13:25:00,102.6,35.7,29.93,WSW,248,8.3,9.2,7,0.00,,,0.00,WUHU216HW,2013-06-10 20:25:00,
2013-06-10 13:30:00,103.1,36.2,29.94,NW,315,6.3,12.5,6,0.00,,,0.00,WUHU216HW,2013-06-10 20:30:00,
2013-06-10 13:35:00,102.8,35.9,29.94,NNW,338,2.2,12.5,6,0.00,,,0.00,WUHU216HW,2013-06-10 20:35:00,
2013-06-10 13:40:00,103.0,36.0,29.93,North,0,4.7,8.3,7,0.00,,,0.00,WUHU216HW,2013-06-10 20:40:00,
2013-06-10 13:45:00,103.5,36.5,29.93,North,0,2.5,8.3,6,0.00,,,0.00,WUHU216HW,2013-06-10 20:45:00,
2013-06-10 13:50:00,104.0,36.9,29.93,WNW,293,0.4,6.9,7,0.00,,,0.00,WUHU216HW,2013-06-10 20:50:00,
2013-06-10 13:55:00,104.6,37.3,29.93,WSW,248,6.9,9.2,6,0.00,,,0.00,WUHU216HW,2013-06-10 20:55:00,
2013-06-10 14:00:00,105.1,37.6,29.92,WNW,293,8.1,10.7,6,0.00,,,0.00,WUHU216HW,2013-06-10 21:00:00,
2013-06-10 14:05:00,105.1,37.6,29.92,WNW,293,8.7,12.1,6,0.00,,,0.00,WUHU216HW,2013-06-10 21:05:00,
2013-06-10 14:10:00,104.9,37.5,29.92,NNW,338,4.5,12.1,6,0.00,,,0.00,WUHU216HW,2013-06-10 21:10:00,
2013-06-10 14:15:00,105.3,37.8,29.91,West,270,9.6,10.3,6,0.00,,,0.00,WUHU216HW,2013-06-10 21:15:00,
2013-06-10 14:20:00,104.9,37.5,29.91,NW,315,10.1,15.9,6,0.00,,,0.00,WUHU216HW,2013-06-10 21:20:00,
2013-06-10 14:25:00,104.6,37.3,29.91,WSW,248,7.8,15.9,6,0.00,,,0.00,WUHU216HW,2013-06-10 21:25:00,
2013-06-10 14:30:00,104.9,37.5,29.91,West,270,1.8,11.2,6,0.00,,,0.00,WUHU216HW,2013-06-10 21:30:00,
2013-06-10 14:35:00,105.1,37.6,29.91,WNW,293,7.8,14.1,5,0.00,,,0.00,WUHU216HW,2013-06-10 21:35:00,
2013-06-10 14:40:00,105.3,37.8,29.91,SW,225,2.5,14.1,6,0.00,,,0.00,WUHU216HW,2013-06-10 21:40:00,
2013-06-10 14:45:00,105.8,38.2,29.91,NNW,338,6.5,8.5,5,0.00,,,0.00,WUHU216HW,2013-06-10 21:45:00,
2013-06-10 14:50:00,105.3,37.8,29.91,NW,315,6.5,10.5,5,0.00,,,0.00,WUHU216HW,2013-06-10 21:50:00,
2013-06-10 14:55:00,105.1,37.6,29.91,NW,315,9.2,12.1,5,0.00,,,0.00,WUHU216HW,2013-06-10 21:55:00,
2013-06-10 15:00:00,105.3,37.8,29.91,NNW,338,5.6,12.1,5,0.00,,,0.00,WUHU216HW,2013-06-10 22:00:00,
2013-06-10 15:05:00,104.8,37.5,29.90,NE,45,4.5,16.3,5,0.00,,,0.00,WUHU216HW,2013-06-10 22:05:00,
2013-06-10 15:10:00,105.1,37.6,29.90,West,270,3.8,16.3,5,0.00,,,0.00,WUHU216HW,2013-06-10 22:10:00,
2013-06-10 15:15:00,105.8,38.2,29.89,NW,315,10.7,15.7,5,0.00,,,0.00,WUHU216HW,2013-06-10 22:15:00,
2013-06-10 15:20:00,106.2,38.4,29.89,West,270,8.1,15.7,3,0.00,,,0.00,WUHU216HW,2013-06-10 22:20:00,
2013-06-10 15:25:00,106.0,38.4,29.89,WNW,293,7.4,14.1,3,0.00,,,0.00,WUHU216HW,2013-06-10 22:25:00,
2013-06-10 15:30:00,106.2,38.4,29.89,NW,315,8.1,12.3,3,0.00,,,0.00,WUHU216HW,2013-06-10 22:30:00,
2013-06-10 15:35:00,105.7,38.1,29.89,NW,315,4.5,12.3,3,0.00,,,0.00,WUHU216HW,2013-06-10 22:35:00,
2013-06-10 15:40:00,105.8,38.2,29.89,WNW,293,9.6,11.6,3,0.00,,,0.00,WUHU216HW,2013-06-10 22:40:00,
2013-06-10 15:45:00,105.8,38.2,29.89,North,0,4.7,11.0,3,0.00,,,0.00,WUHU216HW,2013-06-10 22:45:00,
2013-06-10 15:50:00,106.6,38.7,29.89,WSW,248,9.8,10.5,3,0.00,,,0.00,WUHU216HW,2013-06-10 22:50:00,
2013-06-10 15:55:00,106.6,38.7,29.89,WNW,293,9.2,14.5,3,0.00,,,0.00,WUHU216HW,2013-06-10 22:55:00,
2013-06-10 16:00:00,106.4,38.6,29.89,West,270,7.2,14.5,3,0.00,,,0.00,WUHU216HW,2013-06-10 23:00:00,
2013-06-10 16:05:00,106.4,38.6,29.88,NNW,338,6.9,10.5,3,0.00,,,0.00,WUHU216HW,2013-06-10 23:05:00,
2013-06-10 16:10:00,106.4,38.6,29.88,NW,315,3.6,9.2,3,0.00,,,0.00,WUHU216HW,2013-06-10 23:10:00,
2013-06-10 16:15:00,106.2,38.4,29.88,NW,315,4.7,7.6,3,0.00,,,0.00,WUHU216HW,2013-06-10 23:15:00,
2013-06-10 16:20:00,106.6,38.7,29.88,West,270,8.5,9.6,3,0.00,,,0.00,WUHU216HW,2013-06-10 23:20:00,
2013-06-10 16:25:00,106.9,39.1,29.87,NNW,338,6.0,11.4,3,0.00,,,0.00,WUHU216HW,2013-06-10 23:25:00,
2013-06-10 16:30:00,106.4,38.6,29.87,WNW,293,10.7,11.4,3,0.00,,,0.00,WUHU216HW,2013-06-10 23:30:00,
2013-06-10 16:35:00,106.7,38.9,29.87,WNW,293,7.6,13.0,3,0.00,,,0.00,WUHU216HW,2013-06-10 23:35:00,
2013-06-10 16:40:00,106.7,38.9,29.87,WNW,293,3.8,13.0,3,0.00,,,0.00,WUHU216HW,2013-06-10 23:40:00,
2013-06-10 16:45:00,106.6,38.7,29.87,West,270,2.7,12.3,3,0.00,,,0.00,WUHU216HW,2013-06-10 23:45:00,
2013-06-10 16:50:00,106.9,39.1,29.87,SW,225,5.6,12.3,3,0.00,,,0.00,WUHU216HW,2013-06-10 23:50:00,
2013-06-10 16:55:00,107.5,39.4,29.88,West,270,7.2,13.6,3,0.00,,,0.00,WUHU216HW,2013-06-10 23:55:00,
2013-06-10 17:00:00,107.6,39.6,29.88,WSW,248,8.1,15.4,3,0.00,,,0.00,WUHU216HW,2013-06-11 00:00:00,
2013-06-10 17:05:00,107.1,39.2,29.87,West,270,8.9,15.4,3,0.00,,,0.00,WUHU216HW,2013-06-11 00:05:00,
2013-06-10 17:10:00,107.3,39.3,29.86,West,270,11.4,14.3,3,0.00,,,0.00,WUHU216HW,2013-06-11 00:10:00,
2013-06-10 17:15:00,107.6,39.6,29.86,WNW,293,10.5,13.0,3,0.00,,,0.00,WUHU216HW,2013-06-11 00:15:00,
2013-06-10 17:20:00,107.3,39.3,29.86,NW,315,8.3,13.0,3,0.00,,,0.00,WUHU216HW,2013-06-11 00:20:00,
2013-06-10 17:25:00,106.9,39.1,29.86,NW,315,9.6,14.3,3,0.00,,,0.00,WUHU216HW,2013-06-11 00:25:00,
2013-06-10 17:30:00,106.2,38.4,29.86,NNE,23,4.7,14.3,3,0.00,,,0.00,WUHU216HW,2013-06-11 00:30:00,
2013-06-10 17:35:00,106.9,39.1,29.86,NW,315,11.0,12.8,3,0.00,,,0.00,WUHU216HW,2013-06-11 00:35:00,
2013-06-10 17:40:00,106.9,39.1,29.86,West,270,9.6,16.1,3,0.00,,,0.00,WUHU216HW,2013-06-11 00:40:00,
2013-06-10 17:45:00,106.9,39.1,29.86,West,270,11.4,16.1,3,0.00,,,0.00,WUHU216HW,2013-06-11 00:45:00,
2013-06-10 17:50:00,106.9,39.1,29.87,West,270,6.3,13.4,3,0.00,,,0.00,WUHU216HW,2013-06-11 00:50:00,
2013-06-10 17:55:00,106.7,38.9,29.87,WNW,293,9.8,13.4,3,0.00,,,0.00,WUHU216HW,2013-06-11 00:55:00,
2013-06-10 18:00:00,106.6,38.7,29.87,NW,315,4.7,12.8,3,0.00,,,0.00,WUHU216HW,2013-06-11 01:00:00,
2013-06-10 18:05:00,107.1,39.2,29.87,WNW,293,8.1,9.8,3,0.00,,,0.00,WUHU216HW,2013-06-11 01:05:00,
2013-06-10 18:10:00,107.5,39.4,29.87,West,270,8.9,9.4,3,0.00,,,0.00,WUHU216HW,2013-06-11 01:10:00,
2013-06-10 18:15:00,107.3,39.3,29.87,NW,315,6.9,12.5,3,0.00,,,0.00,WUHU216HW,2013-06-11 01:15:00,
2013-06-10 18:20:00,106.9,39.1,29.86,NNW,338,8.1,12.8,3,0.00,,,0.00,WUHU216HW,2013-06-11 01:20:00,
2013-06-10 18:25:00,106.2,38.4,29.86,West,270,8.1,12.8,3,0.00,,,0.00,WUHU216HW,2013-06-11 01:25:00,
2013-06-10 18:30:00,106.2,38.4,29.86,WNW,293,7.6,12.8,3,0.00,,,0.00,WUHU216HW,2013-06-11 01:30:00,
2013-06-10 18:35:00,106.2,38.4,29.86,WNW,293,8.1,12.8,3,0.00,,,0.00,WUHU216HW,2013-06-11 01:35:00,
2013-06-10 18:40:00,106.2,38.4,29.86,NW,315,7.6,12.1,3,0.00,,,0.00,WUHU216HW,2013-06-11 01:40:00,
2013-06-10 18:45:00,105.8,38.2,29.87,WNW,293,7.8,11.0,3,0.00,,,0.00,WUHU216HW,2013-06-11 01:45:00,
2013-06-10 18:50:00,104.9,37.5,29.87,WNW,293,8.7,11.4,3,0.00,,,0.00,WUHU216HW,2013-06-11 01:50:00,
2013-06-10 18:55:00,104.8,37.5,29.87,WNW,293,8.7,11.4,4,0.00,,,0.00,WUHU216HW,2013-06-11 01:55:00,
2013-06-10 19:00:00,104.4,37.2,29.88,WNW,293,6.5,11.0,5,0.00,,,0.00,WUHU216HW,2013-06-11 02:00:00,
2013-06-10 19:05:00,103.9,36.7,29.88,WNW,293,3.6,9.4,5,0.00,,,0.00,WUHU216HW,2013-06-11 02:05:00,
2013-06-10 19:10:00,103.1,36.2,29.88,WNW,293,4.3,9.2,5,0.00,,,0.00,WUHU216HW,2013-06-11 02:10:00,
2013-06-10 19:15:00,102.1,35.4,29.88,NW,315,4.7,7.8,5,0.00,,,0.00,WUHU216HW,2013-06-11 02:15:00,
2013-06-10 19:20:00,100.8,34.5,29.87,WNW,293,7.6,7.6,5,0.00,,,0.00,WUHU216HW,2013-06-11 02:20:00,
2013-06-10 19:25:00,99.4,33.3,29.87,WNW,293,8.1,8.9,6,0.00,,,0.00,WUHU216HW,2013-06-11 02:25:00,
2013-06-10 19:30:00,98.6,32.8,29.87,WNW,293,4.7,9.2,6,0.00,,,0.00,WUHU216HW,2013-06-11 02:30:00,
2013-06-10 19:35:00,98.3,32.5,29.87,West,270,6.0,9.2,6,0.00,,,0.00,WUHU216HW,2013-06-11 02:35:00,
2013-06-10 19:40:00,97.6,31.9,29.87,WNW,293,3.4,7.2,6,0.00,,,0.00,WUHU216HW,2013-06-11 02:40:00,
2013-06-10 19:45:00,97.0,31.5,29.87,NW,315,5.4,6.7,6,0.00,,,0.00,WUHU216HW,2013-06-11 02:45:00,
2013-06-10 19:50:00,96.7,31.2,29.87,WNW,293,5.8,6.7,6,0.00,,,0.00,WUHU216HW,2013-06-11 02:50:00,
2013-06-10 19:55:00,96.1,30.8,29.88,WNW,293,5.6,6.3,7,0.00,,,0.00,WUHU216HW,2013-06-11 02:55:00,
2013-06-10 20:00:00,95.6,30.4,29.88,NNW,338,4.7,6.3,7,0.00,,,0.00,WUHU216HW,2013-06-11 03:00:00,
2013-06-10 20:05:00,95.2,30.2,29.88,NW,315,6.0,6.3,7,0.00,,,0.00,WUHU216HW,2013-06-11 03:05:00,
2013-06-10 20:10:00,94.7,29.8,29.88,WNW,293,4.0,6.0,7,0.00,,,0.00,WUHU216HW,2013-06-11 03:10:00,
2013-06-10 20:15:00,94.3,29.5,29.88,NW,315,4.0,6.0,7,0.00,,,0.00,WUHU216HW,2013-06-11 03:15:00,
2013-06-10 20:20:00,94.1,29.3,29.88,NW,315,3.4,5.6,7,0.00,,,0.00,WUHU216HW,2013-06-11 03:20:00,
2013-06-10 20:25:00,94.0,29.2,29.88,NW,315,5.4,5.6,8,0.00,,,0.00,WUHU216HW,2013-06-11 03:25:00,
2013-06-10 20:30:00,94.0,29.2,29.88,WNW,293,5.6,6.9,8,0.00,,,0.00,WUHU216HW,2013-06-11 03:30:00,
2013-06-10 20:35:00,94.0,29.2,29.88,WSW,248,4.0,6.9,8,0.00,,,0.00,WUHU216HW,2013-06-11 03:35:00,
2013-06-10 20:40:00,93.6,28.9,29.88,NNW,338,3.4,6.7,8,0.00,,,0.00,WUHU216HW,2013-06-11 03:40:00,
2013-06-10 20:45:00,93.4,28.8,29.89,West,270,5.8,8.3,9,0.00,,,0.00,WUHU216HW,2013-06-11 03:45:00,
2013-06-10 20:50:00,93.2,28.6,29.89,NW,315,3.8,8.3,10,0.00,,,0.00,WUHU216HW,2013-06-11 03:50:00,
2013-06-10 20:55:00,93.2,28.6,29.90,NW,315,6.7,7.4,10,0.00,,,0.00,WUHU216HW,2013-06-11 03:55:00,
2013-06-10 21:00:00,93.1,28.5,29.90,NW,315,4.3,7.4,10,0.00,,,0.00,WUHU216HW,2013-06-11 04:00:00,
2013-06-10 21:01:00,93.1,28.5,29.90,NNW,338,5.8,7.4,10,0.00,,,0.00,WUHU216HW,2013-06-11 04:01:00,
2013-06-10 21:02:00,93.1,28.5,29.90,NNW,338,4.3,6.9,10,0.00,,,0.00,WUHU216HW,2013-06-11 04:02:00,
2013-06-10 21:07:00,92.9,30.2,29.90,North,0,2.5,7.2,11,0.00,,,0.00,WUHU216HW,2013-06-11 04:07:00,
2013-06-10 21:12:00,92.7,30.0,29.90,NW,315,2.9,7.2,11,0.00,,,0.00,WUHU216HW,2013-06-11 04:12:00,
2013-06-10 21:17:00,92.7,30.0,29.90,NW,315,4.0,6.7,11,0.00,,,0.00,WUHU216HW,2013-06-11 04:17:00,
2013-06-10 21:22:00,92.5,29.9,29.90,NW,315,4.7,7.8,11,0.00,,,0.00,WUHU216HW,2013-06-11 04:22:00,
2013-06-10 21:27:00,92.2,29.6,29.90,NW,315,6.0,7.8,11,0.00,,,0.00,WUHU216HW,2013-06-11 04:27:00,
2013-06-10 21:32:00,92.2,29.6,29.90,NNW,338,4.0,6.7,11,0.00,,,0.00,WUHU216HW,2013-06-11 04:32:00,
2013-06-10 21:37:00,92.0,31.2,29.90,NNW,338,4.7,6.9,12,0.00,,,0.00,WUHU216HW,2013-06-11 04:37:00,
2013-06-10 21:42:00,91.8,31.2,29.90,NW,315,5.4,7.4,12,0.00,,,0.00,WUHU216HW,2013-06-11 04:42:00,
2013-06-10 21:47:00,91.8,31.2,29.91,WNW,293,4.9,9.8,12,0.00,,,0.00,WUHU216HW,2013-06-11 04:47:00,
2013-06-10 21:52:00,91.6,31.0,29.91,NW,315,5.6,9.8,12,0.00,,,0.00,WUHU216HW,2013-06-11 04:52:00,
2013-06-10 21:57:00,91.8,31.2,29.92,NW,315,8.5,11.2,12,0.00,,,0.00,WUHU216HW,2013-06-11 04:57:00,
2013-06-10 22:02:00,91.8,31.2,29.92,NW,315,7.2,11.2,12,0.00,,,0.00,WUHU216HW,2013-06-11 05:02:00,
2013-06-10 22:07:00,92.0,29.5,29.92,NNW,338,8.3,12.8,11,0.00,,,0.00,WUHU216HW,2013-06-11 05:07:00,
2013-06-10 22:12:00,91.8,29.3,29.92,NW,315,8.7,13.6,11,0.00,,,0.00,WUHU216HW,2013-06-11 05:12:00,
2013-06-10 22:17:00,91.8,29.3,29.91,NNW,338,8.1,13.6,11,0.00,,,0.00,WUHU216HW,2013-06-11 05:17:00,
2013-06-10 22:22:00,91.4,29.1,29.91,NW,315,7.4,10.3,11,0.00,,,0.00,WUHU216HW,2013-06-11 05:22:00,
2013-06-10 22:27:00,91.3,29.0,29.91,WNW,293,5.4,10.3,11,0.00,,,0.00,WUHU216HW,2013-06-11 05:27:00,
2013-06-10 22:32:00,91.1,30.6,29.90,NNW,338,6.7,11.2,12,0.00,,,0.00,WUHU216HW,2013-06-11 05:32:00,
2013-06-10 22:37:00,91.1,28.8,29.90,NNW,338,4.9,11.4,11,0.00,,,0.00,WUHU216HW,2013-06-11 05:37:00,
2013-06-10 22:42:00,90.9,28.7,29.91,WNW,293,4.9,11.4,11,0.00,,,0.00,WUHU216HW,2013-06-11 05:42:00,
2013-06-10 22:47:00,90.9,28.7,29.91,WNW,293,10.1,10.1,11,0.00,,,0.00,WUHU216HW,2013-06-11 05:47:00,
2013-06-10 22:52:00,91.1,28.8,29.92,NNW,338,9.2,11.4,11,0.00,,,0.00,WUHU216HW,2013-06-11 05:52:00,
2013-06-10 22:57:00,90.9,28.7,29.92,NW,315,5.6,12.8,11,0.00,,,0.00,WUHU216HW,2013-06-11 05:57:00,
2013-06-10 23:02:00,90.7,28.5,29.92,WNW,293,3.8,12.8,11,0.00,,,0.00,WUHU216HW,2013-06-11 06:02:00,
2013-06-10 23:07:00,90.5,28.4,29.92,NNW,338,8.1,12.8,11,0.00,,,0.00,WUHU216HW,2013-06-11 06:07:00,
2013-06-10 23:12:00,90.5,28.4,29.92,WNW,293,6.9,11.0,11,0.00,,,0.00,WUHU216HW,2013-06-11 06:12:00,
2013-06-10 23:17:00,90.7,28.5,29.92,NW,315,12.5,15.4,11,0.00,,,0.00,WUHU216HW,2013-06-11 06:17:00,
2013-06-10 23:22:00,90.7,28.5,29.92,NNW,338,3.6,15.4,11,0.00,,,0.00,WUHU216HW,2013-06-11 06:22:00,
2013-06-10 23:27:00,90.5,28.4,29.91,West,270,6.7,12.5,11,0.00,,,0.00,WUHU216HW,2013-06-11 06:27:00,
2013-06-10 23:32:00,90.4,28.3,29.90,NNW,338,3.4,8.7,11,0.00,,,0.00,WUHU216HW,2013-06-11 06:32:00,
2013-06-10 23:37:00,90.4,28.3,29.90,NNW,338,4.0,8.7,11,0.00,,,0.00,WUHU216HW,2013-06-11 06:37:00,
2013-06-10 23:42:00,90.0,28.0,29.90,NW,315,6.0,7.6,11,0.00,,,0.00,WUHU216HW,2013-06-11 06:42:00,
2013-06-10 23:47:00,89.6,27.6,29.91,NW,315,5.8,7.6,11,0.00,,,0.00,WUHU216HW,2013-06-11 06:47:00,
2013-06-10 23:52:00,89.3,29.2,29.91,NW,315,7.6,8.5,12,0.00,,,0.00,WUHU216HW,2013-06-11 06:52:00,
2013-06-10 23:57:00,88.9,28.9,29.91,WNW,293,6.5,9.4,12,0.00,,,0.00,WUHU216HW,2013-06-11 06:57:00,